Temp
5 5 5 4 4 3 2 1 2 1 1 2 2 1 1 1 1 1 1 1 0 -1 -1 -2 -2 -3 -3 -4 -4 -4 -4 -4 -5 -5 -5 -6 -6 -7 -8 -9 -9 -10 -10
5 5 4 2 2 1 0 1 0 1 2 2 2 2 2 2 2 1 1 -0 -1 -1 -2 -2 -3 -3 -4 -4 -4 -4 -4 -5 -5 -5 -5 -6 -7 -8 -8 -9 -10 -11 -11
5 5 2 3 2 3 2 1 1 3 3 2 2 2 2 2 1 1 0 -1 -1 -1 -2 -2 -2 -3 -4 -4 -5 -6 -5 -5 -5 -5 -5 -6 -7 -9 -9 -10 -10 -11 -11
5 3 3 3 3 3 3 1 2 3 3 2 2 2 2 1 1 0 0 -1 -2 -3 -3 -3 -3 -4 -4 -5 -6 -5 -5 -5 -6 -7 -7 -8 -8 -9 -10 -10 -11 -11 -12
4 4 3 3 3 3 3 2 2 3 2 2 2 2 1 1 1 1 0 -1 -2 -3 -3 -3 -4 -3 -5 -5 -5 -6 -6 -7 -7 -8 -8 -8 -9 -10 -10 -11 -11 -12 -12
4 3 3 4 3 3 3 3 3 2 2 2 2 1 1 1 1 -0 -1 -2 -2 -3 -3 -4 -4 -4 -5 -6 -6 -7 -8 -8 -8 -9 -9 -9 -10 -10 -10 -11 -11 -12 -13
4 4 4 4 4 3 3 3 2 2 2 2 1 1 1 1 -0 -1 -2 -2 -3 -3 -4 -5 -5 -5 -6 -7 -7 -8 -8 -9 -9 -9 -10 -10 -10 -11 -11 -11 -12 -12 -13
4 4 4 4 3 3 3 2 2 2 2 2 2 1 0 -0 -1 -2 -2 -3 -4 -4 -4 -5 -6 -6 -7 -7 -8 -8 -9 -9 -10 -10 -11 -11 -11 -11 -12 -12 -12 -13 -14
4 4 3 3 3 3 3 2 2 2 2 2 1 0 -0 -1 -2 -2 -3 -3 -4 -4 -5 -6 -7 -7 -8 -8 -8 -9 -10 -10 -10 -10 -11 -11 -11 -12 -13 -13 -13 -14 -14
3 3 3 3 3 3 2 2 2 2 2 1 0 -1 -1 -2 -2 -3 -3 -4 -5 -6 -6 -7 -8 -8 -9 -9 -9 -10 -10 -10 -10 -10 -11 -11 -12 -12 -13 -14 -15 -15 -15
3 3 3 3 2 2 2 2 2 2 1 0 -0 -1 -1 -2 -3 -4 -5 -6 -6 -7 -8 -8 -9 -9 -10 -10 -10 -10 -10 -10 -10 -11 -11 -12 -12 -13 -13 -14 -15 -16 -16
2 2 2 2 2 2 2 1 1 1 0 -1 -1 -2 -2 -3 -4 -5 -6 -7 -8 -8 -9 -9 -10 -10 -10 -10 -11 -11 -11 -11 -11 -12 -12 -12 -13 -13 -14 -14 -15 -16 -17
2 2 2 1 1 1 1 1 0 -0 -1 -2 -2 -3 -4 -5 -6 -7 -8 -9 -9 -10 -10 -10 -10 -10 -11 -11 -11 -11 -12 -12 -12 -12 -13 -13 -14 -14 -14 -15 -16 -17 -18
2 1 1 1 1 1 0 -0 -1 -2 -3 -3 -4 -5 -6 -7 -8 -9 -9 -10 -11 -11 -12 -11 -11 -11 -11 -11 -12 -12 -13 -13 -13 -13 -14 -14 -15 -15 -15 -16 -16 -18 -18
1 1 0 0 -0 -1 -1 -2 -3 -4 -5 -5 -6 -7 -8 -10 -11 -11 -12 -12 -12 -12 -13 -13 -12 -12 -12 -12 -13 -13 -13 -14 -14 -14 -15 -15 -16 -16 -16 -17 -18 -18 -18
0 -0 -0 -1 -2 -2 -3 -4 -5 -6 -6 -7 -9 -11 -13 -14 -13 -12 -13 -13 -13 -13 -13 -13 -13 -12 -13 -13 -13 -13 -14 -14 -15 -15 -16 -17 -17 -17 -17 -18 -18 -18 -18
-1 -1 -2 -3 -4 -4 -5 -6 -6 -7 -8 -12 -13 -13 -12 -12 -12 -12 -12 -13 -13 -14 -14 -14 -14 -13 -13 -14 -14 -14 -15 -15 -15 -16 -17 -18 -18 -18 -18 -18 -18 -18 -18
-3 -3 -4 -5 -6 -6 -6 -7 -8 -8 -10 -11 -10 -11 -12 -13 -13 -13 -13 -13 -15 -15 -15 -15 -15 -15 -15 -15 -15 -15 -16 -16 -17 -17 -18 -18 -19 -19 -19 -19 -18 -18 -18
-4 -4 -5 -6 -6 -7 -7 -8 -9 -10 -10 -11 -12 -12 -12 -13 -13 -13 -13 -14 -14 -15 -15 -15 -15 -16 -16 -16 -16 -16 -17 -17 -18 -18 -19 -19 -19 -19 -19 -19 -18 -18 -18
-5 -6 -7 -8 -9 -9 -10 -10 -10 -11 -12 -12 -12 -12 -12 -13 -13 -14 -14 -14 -15 -15 -15 -16 -16 -17 -17 -17 -17 -18 -18 -19 -19 -19 -20 -20 -20 -20 -19 -19 -19 -18 -19
-8 -9 -9 -10 -10 -11 -11 -12 -12 -12 -13 -13 -13 -13 -13 -14 -14 -15 -15 -16 -16 -16 -17 -17 -18 -18 -18 -18 -19 -19 -19 -20 -20 -20 -20 -20 -20 -20 -20 -20 -19 -19 -19
-9 -10 -11 -12 -12 -12 -12 -13 -13 -13 -13 -13 -14 -14 -15 -15 -15 -16 -16 -17 -17 -17 -18 -18 -19 -19 -19 -19 -20 -20 -20 -21 -21 -21 -21 -21 -21 -21 -21 -20 -20 -19 -19
-11 -12 -12 -13 -13 -13 -13 -13 -13 -14 -14 -14 -15 -15 -16 -16 -17 -17 -17 -18 -18 -19 -19 -20 -20 -20 -21 -21 -21 -22 -21 -22 -22 -22 -22 -21 -21 -21 -21 -21 -20 -20 -19
-12 -13 -13 -13 -13 -13 -13 -14 -14 -14 -15 -15 -16 -17 -17 -18 -18 -19 -19 -20 -20 -20 -21 -21 -21 -21 -22 -22 -22 -23 -23 -23 -22 -22 -22 -22 -22 -22 -22 -21 -21 -20 -20
-14 -14 -14 -14 -14 -14 -14 -15 -15 -16 -17 -17 -18 -18 -19 -20 -20 -21 -21 -21 -22 -22 -22 -22 -23 -23 -23 -23 -23 -23 -24 -23 -23 -23 -23 -23 -23 -23 -22 -22 -22 -21 -20
-14 -14 -14 -15 -15 -16 -16 -16 -17 -17 -18 -18 -19 -20 -21 -21 -22 -23 -23 -23 -23 -23 -23 -24 -24 -24 -24 -24 -24 -24 -24 -24 -24 -24 -23 -23 -23 -23 -23 -22 -22 -21 -21
Height
3084 3086 3089 3091 3093 3093 3095 3093 3092 3093 3097 3099 3101 3103 3103 3104 3103 3104 3103 3101 3099 3097 3096 3094 3089 3088 3085 3084 3081 3079 3075 3071 3065 3063 3060 3059 3055 3052 3050 3046 3041 3037 3033
3077 3076 3078 3082 3083 3084 3086 3086 3076 3060 3088 3092 3095 3097 3097 3097 3096 3096 3094 3092 3090 3088 3086 3083 3080 3079 3077 3075 3072 3069 3065 3061 3057 3051 3049 3048 3044 3041 3037 3032 3029 3026 3022
3068 3071 3069 3071 3072 3075 3078 3079 3079 3078 3083 3087 3090 3090 3089 3088 3088 3087 3085 3083 3082 3079 3077 3075 3072 3070 3068 3065 3060 3057 3055 3051 3047 3042 3039 3035 3031 3030 3026 3022 3018 3014 3010
3063 3066 3062 3068 3068 3069 3071 3076 3077 3078 3079 3080 3082 3081 3081 3080 3079 3077 3075 3073 3071 3069 3068 3065 3063 3060 3056 3053 3050 3048 3045 3041 3038 3033 3027 3023 3020 3018 3013 3008 3003 3000 2995
3057 3060 3062 3064 3065 3065 3067 3069 3071 3071 3072 3073 3074 3074 3073 3072 3070 3068 3066 3064 3061 3060 3057 3055 3052 3048 3046 3044 3041 3039 3035 3031 3027 3022 3017 3012 3009 3005 3001 2996 2988 2985 2980
3053 3054 3057 3057 3059 3060 3062 3065 3063 3064 3066 3066 3067 3065 3064 3062 3060 3058 3056 3054 3052 3050 3047 3045 3042 3040 3038 3035 3031 3027 3024 3020 3016 3011 3005 3000 2996 2991 2987 2980 2973 2968 2961
3046 3047 3049 3051 3053 3054 3054 3055 3057 3058 3059 3059 3057 3056 3054 3052 3051 3049 3047 3044 3041 3039 3037 3036 3033 3031 3029 3025 3022 3018 3015 3010 3004 2999 2993 2989 2983 2977 2970 2964 2958 2952 2947
3039 3041 3042 3042 3043 3045 3047 3048 3050 3050 3050 3049 3048 3047 3045 3044 3041 3039 3037 3034 3032 3030 3029 3026 3024 3021 3018 3015 3012 3008 3005 3001 2996 2991 2985 2980 2973 2967 2958 2951 2943 2937 2933
3034 3034 3035 3036 3037 3038 3038 3040 3041 3041 3040 3039 3038 3036 3035 3033 3031 3029 3027 3025 3022 3020 3018 3016 3014 3011 3007 3004 3001 2997 2994 2990 2985 2979 2973 2967 2962 2954 2944 2935 2930 2921 2918
3027 3027 3028 3028 3029 3030 3031 3032 3032 3031 3030 3029 3028 3026 3025 3024 3021 3019 3017 3015 3012 3010 3008 3005 3002 3000 2997 2994 2991 2986 2982 2978 2973 2968 2962 2956 2949 2942 2934 2923 2915 2909 2905
3018 3020 3021 3021 3021 3021 3023 3024 3024 3023 3022 3020 3019 3017 3016 3014 3012 3010 3008 3005 3003 3000 2998 2995 2993 2990 2988 2984 2980 2976 2971 2965 2960 2954 2948 2942 2935 2928 2920 2913 2904 2897 2893
3011 3012 3013 3013 3014 3015 3016 3016 3015 3014 3012 3011 3009 3007 3005 3004 3002 3000 2998 2996 2994 2992 2990 2987 2984 2982 2979 2975 2970 2965 2960 2954 2948 2942 2935 2929 2922 2916 2909 2902 2895 2889 2884
3004 3005 3006 3006 3006 3006 3006 3006 3005 3004 3003 3001 2999 2997 2996 2994 2992 2989 2987 2986 2984 2982 2980 2978 2975 2972 2968 2963 2958 2952 2947 2941 2935 2928 2922 2916 2908 2901 2896 2890 2884 2879 2876
2997 2997 2997 2998 2998 2998 2997 2996 2995 2994 2992 2990 2988 2987 2985 2983 2982 2979 2977 2976 2974 2973 2970 2967 2964 2961 2956 2951 2945 2940 2935 2928 2922 2915 2909 2903 2896 2890 2884 2878 2873 2872 2869
2988 2988 2989 2989 2989 2989 2988 2986 2985 2983 2981 2980 2978 2977 2975 2973 2972 2969 2966 2965 2964 2963 2960 2957 2953 2949 2944 2939 2934 2930 2924 2917 2911 2905 2898 2892 2886 2880 2875 2869 2866 2865 2865
2979 2980 2979 2979 2978 2978 2977 2976 2974 2973 2971 2969 2967 2965 2963 2961 2961 2959 2956 2955 2953 2952 2949 2946 2943 2938 2934 2929 2923 2918 2912 2906 2900 2893 2887 2881 2876 2871 2866 2863 2861 2861 2861
2968 2968 2968 2967 2967 2967 2966 2965 2964 2962 2960 2957 2953 2953 2954 2954 2950 2947 2946 2945 2943 2941 2937 2934 2930 2926 2922 2917 2911 2905 2900 2894 2888 2882 2876 2872 2867 2863 2858 2856 2856 2856 2856
2958 2959 2959 2958 2957 2957 2955 2954 2951 2947 2946 2949 2949 2946 2945 2944 2941 2939 2936 2934 2932 2929 2925 2921 2917 2913 2908 2903 2898 2893 2888 2883 2877 2872 2867 2863 2859 2855 2852 2851 2850 2850 2850
2948 2948 2949 2949 2948 2947 2946 2945 2945 2945 2943 2941 2939 2937 2936 2933 2931 2928 2926 2923 2920 2917 2913 2909 2904 2900 2895 2891 2886 2881 2877 2871 2866 2861 2857 2853 2850 2848 2846 2845 2844 2844 2844
2941 2941 2941 2941 2940 2939 2938 2937 2935 2934 2933 2931 2930 2928 2926 2925 2921 2917 2914 2910 2907 2903 2900 2895 2891 2887 2882 2878 2873 2869 2864 2859 2854 2850 2847 2844 2841 2840 2839 2839 2839 2839 2839
2933 2932 2931 2931 2930 2929 2928 2928 2927 2925 2924 2923 2920 2918 2914 2911 2908 2905 2901 2898 2894 2890 2886 2881 2877 2873 2869 2865 2860 2856 2851 2847 2843 2840 2837 2835 2833 2832 2831 2832 2833 2833 2834
2924 2922 2922 2923 2922 2921 2920 2920 2919 2918 2916 2913 2910 2907 2903 2900 2896 2892 2888 2884 2880 2876 2871 2867 2863 2859 2856 2852 2847 2843 2839 2836 2833 2829 2827 2825 2824 2823 2823 2824 2826 2827 2828
2916 2916 2916 2916 2915 2914 2913 2912 2911 2908 2905 2902 2898 2894 2890 2886 2882 2878 2874 2870 2866 2862 2858 2855 2851 2847 2843 2839 2835 2831 2829 2825 2822 2819 2817 2816 2815 2814 2815 2816 2818 2820 2822
2911 2911 2910 2909 2908 2907 2905 2902 2899 2896 2893 2889 2885 2881 2877 2873 2868 2864 2859 2855 2852 2848 2845 2841 2838 2834 2831 2827 2823 2820 2818 2815 2812 2810 2808 2806 2806 2805 2806 2808 2810 2813 2815
2906 2905 2903 2901 2899 2897 2894 2890 2887 2883 2880 2875 2871 2866 2862 2858 2853 2849 2845 2841 2838 2835 2831 2828 2824 2821 2819 2816 2814 2810 2808 2805 2802 2801 2799 2798 2797 2797 2798 2800 2801 2805 2808
2899 2897 2894 2891 2888 2885 2882 2878 2873 2869 2865 2861 2856 2851 2847 2843 2838 2834 2830 2827 2824 2821 2819 2816 2813 2810 2808 2806 2804 2801 2799 2797 2795 2793 2791 2791 2790 2790 2791 2793 2794 2797 2801
Wind_Speed
23 23 25 26 28 32 32 35 33 35 26 25 26 22 26 23 22 26 28 29 29 30 27 32 34 35 34 36 37 42 39 44 49 48 43 39 38 37 36 38 40 42 43
35 33 23 24 26 18 32 31 37 30 22 27 25 24 22 22 25 28 30 30 32 32 32 29 31 38 41 38 39 41 41 42 46 47 43 39 38 36 38 40 41 42 44
39 32 26 28 18 23 22 10 8 13 22 23 23 22 24 26 28 31 33 33 33 36 31 33 42 39 37 43 42 39 40 42 41 43 44 42 40 37 38 40 42 44 46
33 30 22 17 13 21 21 21 16 17 18 19 22 24 27 30 33 35 36 32 33 28 33 35 34 41 43 37 41 38 37 38 39 40 41 42 42 41 42 44 46 46 49
25 23 21 19 18 18 20 21 20 19 20 21 25 28 31 34 35 35 32 32 28 35 33 35 35 35 33 35 35 34 35 36 38 40 42 44 44 45 46 48 51 51 53
24 24 25 23 20 19 19 21 18 20 24 26 29 32 33 34 33 31 31 31 32 32 32 32 32 32 31 32 33 35 35 37 39 42 45 47 48 50 52 55 57 57 57
25 25 26 24 22 22 22 22 22 24 27 31 30 32 32 32 31 30 30 31 31 30 29 28 31 31 31 31 33 34 35 37 42 46 49 50 52 54 57 59 60 60 59
28 27 24 26 25 26 26 27 29 30 31 31 32 32 30 29 29 29 29 29 29 29 29 30 30 32 32 34 34 35 36 38 42 44 47 49 52 54 56 57 58 58 54
26 24 26 28 30 30 30 30 32 30 30 30 30 29 29 29 29 29 28 29 30 30 30 30 31 33 33 34 35 38 39 41 43 45 48 50 51 53 54 55 53 52 50
30 29 30 30 29 32 32 29 28 29 30 30 29 29 30 29 29 29 30 30 31 31 31 31 31 32 32 34 37 40 42 43 45 47 48 49 50 51 50 50 49 46 44
34 33 35 34 33 31 27 28 29 31 31 32 32 32 32 31 30 30 30 31 31 30 30 30 31 31 33 36 38 40 42 45 47 49 50 51 51 50 49 48 47 43 39
33 35 35 33 29 28 29 31 31 32 33 33 33 34 33 31 31 32 33 32 31 30 29 29 30 32 35 36 37 39 42 44 47 50 52 52 52 51 48 46 42 40 34
27 28 29 29 31 33 33 33 34 34 34 35 35 34 33 32 32 32 32 31 29 27 27 30 32 35 36 37 39 41 44 46 49 51 52 52 51 50 47 45 40 32 29
28 30 32 34 35 36 36 36 36 37 37 37 36 34 33 34 33 32 30 27 27 32 31 33 35 36 39 41 43 44 46 48 49 51 51 50 49 47 45 41 32 23 24
32 35 37 38 39 39 39 39 39 38 38 37 36 35 35 32 30 29 32 36 32 32 34 35 37 40 43 43 44 46 47 47 48 49 49 47 45 44 41 32 20 19 18
36 39 40 41 42 42 42 42 41 39 38 37 36 34 33 30 31 35 34 32 34 33 35 38 41 44 44 45 47 48 47 47 48 47 45 43 42 40 36 19 17 17 18
39 41 43 44 44 44 45 45 43 41 36 35 36 32 33 37 38 39 37 34 33 34 38 42 44 45 46 48 48 48 47 47 47 46 43 40 38 35 27 19 19 16 10
40 42 44 44 44 45 44 42 42 44 43 37 38 38 39 40 37 35 35 35 35 39 42 44 46 47 47 48 48 47 47 46 45 43 40 37 33 30 22 20 19 18 14
42 44 45 44 44 44 46 46 40 35 35 34 34 35 34 34 34 36 37 38 41 42 44 46 47 47 47 47 46 47 46 45 43 40 38 34 30 27 23 19 18 22 21
39 39 39 39 38 37 36 34 33 33 32 32 33 34 35 35 36 38 41 42 44 46 47 47 46 46 46 46 46 46 45 43 40 38 35 32 28 25 23 19 16 18 17
33 34 34 34 32 30 29 28 28 29 31 32 33 35 37 38 39 41 42 44 45 46 46 46 46 45 45 46 45 45 43 40 38 36 33 29 26 24 23 22 20 18 19
29 27 24 23 23 24 24 25 27 29 31 34 35 37 39 41 42 44 45 46 47 47 46 46 45 45 46 45 44 42 40 38 36 33 30 27 26 25 21 22 21 21 20
16 18 19 20 21 23 25 28 31 33 35 37 39 41 42 44 45 47 48 48 47 46 46 45 45 45 43 42 40 39 38 35 33 30 27 26 24 24 23 21 22 21 21
16 17 19 22 24 27 30 33 36 38 40 41 43 44 46 47 48 48 48 48 47 46 45 44 44 42 40 38 36 35 34 31 30 28 27 25 22 23 23 20 26 23 21
18 21 24 27 30 33 36 38 40 42 43 45 46 48 48 49 49 49 48 47 46 44 43 42 40 39 37 35 33 31 30 28 27 26 24 21 19 20 21 20 21 27 23
25 28 31 34 36 38 40 42 44 46 47 48 49 49 49 48 47 46 45 44 43 42 40 38 36 34 33 31 30 28 27 26 24 24 22 19 17 17 18 18 19 23 26
Wind_Direction
251 246 243 245 246 244 247 246 239 237 240 256 259 252 260 268 266 268 271 276 276 278 273 286 281 280 286 280 276 289 287 289 289 292 290 290 288 285 280 280 281 283 282
257 254 251 247 246 262 248 269 262 256 234 249 251 255 261 266 268 270 275 279 281 280 285 268 281 279 289 283 281 284 284 281 287 289 293 293 289 288 292 288 285 282 281
260 266 258 295 265 257 260 287 255 258 231 239 248 254 263 269 274 277 279 276 272 275 275 270 281 281 277 278 280 285 281 284 287 292 295 297 299 295 289 286 286 282 281
263 263 270 269 251 261 251 253 246 232 237 246 257 263 268 274 277 278 283 278 276 281 269 279 272 275 276 275 280 281 285 289 291 294 295 296 296 298 294 294 291 289 289
262 261 265 260 251 251 247 243 244 244 247 257 262 268 271 274 278 280 280 278 278 273 275 275 278 281 279 279 283 289 289 291 294 296 297 298 301 299 297 295 292 291 288
253 254 256 265 261 247 242 242 256 256 255 261 266 270 272 274 277 279 281 279 276 276 276 276 279 280 281 282 287 293 296 299 300 301 301 301 302 301 301 300 298 295 293
255 253 255 254 252 254 256 264 259 252 264 268 266 269 275 278 279 279 277 276 278 278 278 276 274 278 283 288 291 294 298 302 303 302 302 303 304 306 304 302 298 295 294
254 255 260 258 257 258 259 260 261 266 269 267 271 276 278 280 280 278 278 279 277 274 275 277 281 285 288 291 296 300 302 302 298 298 301 303 303 302 300 298 295 293 291
259 266 265 263 260 260 258 260 260 260 265 272 277 280 281 282 282 280 276 274 274 276 278 281 283 285 291 296 299 300 302 302 302 302 302 304 304 303 301 297 296 294 294
268 264 267 268 263 257 256 256 258 266 274 279 280 279 280 281 278 274 274 274 274 276 278 281 287 292 296 299 300 301 303 304 304 303 303 304 306 305 302 299 300 299 295
266 263 267 267 263 258 253 258 267 275 280 280 279 279 280 278 274 272 269 269 271 274 278 284 288 293 296 297 299 302 305 307 308 308 307 310 311 309 306 303 301 298 294
265 265 262 257 253 253 257 264 272 276 277 277 279 280 279 276 273 271 270 270 274 277 282 285 288 291 294 296 299 303 307 309 310 311 312 312 312 310 307 304 300 293 291
260 253 250 249 251 255 262 268 272 275 276 276 276 275 274 271 269 268 269 272 276 279 286 288 289 291 293 296 300 304 307 310 313 313 313 313 312 311 309 306 300 287 288
250 248 248 251 255 260 263 267 269 270 270 272 274 275 272 270 269 268 270 273 277 281 283 285 290 294 295 297 299 303 306 310 312 313 311 311 311 311 310 308 296 283 283
251 251 253 256 258 260 262 263 263 264 265 267 266 265 264 263 263 265 264 275 277 279 283 287 289 291 292 296 299 301 304 308 310 310 310 310 310 309 310 305 275 278 282
257 257 258 259 260 261 261 261 262 262 263 262 261 256 257 260 261 269 270 269 273 278 282 285 288 290 293 296 298 301 304 307 310 310 309 308 307 308 310 284 273 281 272
261 260 259 260 261 260 259 259 259 258 256 247 246 255 269 272 267 269 271 275 277 281 284 287 289 291 294 297 300 303 305 306 309 308 307 306 305 305 305 278 264 274 253
268 269 267 267 265 263 260 256 253 251 253 272 282 277 271 272 271 270 271 275 280 282 284 287 288 292 295 298 300 302 303 305 306 306 304 302 300 300 290 282 258 254 267
276 275 272 269 267 265 263 264 270 277 279 277 274 272 269 267 265 269 276 278 280 282 284 286 290 293 296 297 299 300 302 304 304 303 300 298 296 293 272 282 255 249 239
275 276 280 281 278 274 270 270 272 274 278 279 277 274 274 276 277 278 280 282 285 287 288 289 292 294 295 296 298 300 301 302 301 300 298 294 290 284 269 260 241 224 218
273 275 272 271 270 270 271 274 276 276 275 276 277 278 280 283 285 286 287 288 287 288 290 291 293 294 295 296 298 299 300 300 299 296 294 289 284 274 267 256 248 242 245
272 269 267 268 269 270 272 274 274 273 275 278 281 283 284 286 286 287 287 287 288 290 292 293 293 294 295 296 296 297 297 297 296 294 290 285 281 273 267 246 245 236 243
266 268 269 270 272 273 272 274 277 280 283 284 285 286 286 286 286 287 288 290 291 292 292 292 292 292 293 294 295 296 297 296 295 293 288 283 278 270 258 248 237 232 232
269 271 272 274 275 277 279 282 284 286 286 286 287 287 287 288 289 289 289 290 290 290 290 289 290 291 292 293 293 294 295 294 293 290 289 285 276 264 254 255 234 233 233
277 278 280 283 285 287 288 288 289 289 289 289 289 289 289 289 289 289 289 289 288 288 288 289 290 290 291 292 292 293 293 292 290 289 289 286 274 260 251 254 242 229 230
286 287 289 291 292 293 293 293 292 292 291 291 290 290 289 289 289 288 287 287 287 287 288 288 288 289 289 289 290 291 291 289 288 287 287 283 270 255 253 251 242 231 222